Home > Weather > Kashgar > Past weeks

Flag for China Past Weather in Kashgar, Xinjiang, China — Yesterday and Last 2 Weeks

Now
64 °F

Scattered clouds.


Feels Like: 64 °F
Forecast: 61 / 78 °F
Wind: No wind

Location: Kashi Airport

Current Time: Aug 30, 2016 at 9:32:17 AM

Latest Report: Aug 30, 2016 at 9:00 AM


Visibility: N/A

Pressure: 30.01 "Hg (25.77 "Hg at 1298m altitude)

Humidity: 68%

Dew Point: 54 °F

Location of KashgarLocation

Past Weather in Kashgar — Graph

°F

Kashgar Temperature Yesterday

Maximum temperature yesterday: 77 °F (at 12:00 AM)
Minimum temperature yesterday: 63 °F (at 9:00 AM)
Average temperature yesterday: 70 °F

High & Low Weather Summary for the Past Weeks

 TemperatureHumidityPressure
High86 °F (Aug 21, 6:00 PM)94% (Aug 25, 8:00 AM)30.24 "Hg (Aug 25, 8:00 AM)
Low61 °F (Aug 16, 8:00 AM)21% (Aug 20, 8:00 PM)29.74 "Hg (Aug 16, 5:00 PM)
Average70 °F56%30.02 "Hg
* Reported Aug 15 8:00 AM — Aug 30 8:00 AM, Kashgar, Weather by CustomWeather, © 2016

Note: Actual official high and low records may vary slightly from our data, if they occured in-between our weather recording intervals... More about our weather records

Advertising

Kashgar Weather History for the Previous 24 Hours

Scroll right to see more
 ConditionsComfort  
Time TempWeatherWind HumidityBarometerVisibility
8:00 AM
Tue, Aug 30
64 °FScattered clouds.No wind68%29.98 "HgN/A
7:00 AM64 °FScattered clouds.3 mph68%29.98 "HgN/A
6:00 AM66 °FPassing clouds.6 mph60%29.98 "HgN/A
5:00 AM64 °FPassing clouds.No wind68%29.98 "HgN/A
4:00 AM64 °FPassing clouds.6 mph68%29.98 "HgN/A
3:00 AM63 °FClear.3 mph73%29.98 "Hg10 mi
2:00 AM66 °FClear.No wind64%30.01 "Hg10 mi
1:00 AM68 °FClear.8 mph56%30.01 "Hg10 mi
12:00 AM68 °FClear.15 mph53%30.04 "Hg10 mi
11:00 PM
Mon, Aug 29
70 °FThunderstorms. Passing clouds.8 mph50%30.04 "HgN/A
10:00 PM70 °FPassing clouds.13 mph46%30.01 "HgN/A
9:00 PM72 °FPassing clouds.8 mph38%29.98 "HgN/A
8:00 PM70 °FThunderstorms. Passing clouds.17 mph46%30.04 "HgN/A
7:00 PM73 °FPartly sunny.3 mph50%30.04 "HgN/A
6:00 PM75 °FPassing clouds.1 mph47%30.04 "HgN/A
5:00 PM73 °FPassing clouds.8 mph47%30.04 "HgN/A
4:00 PM73 °FScattered clouds.8 mph53%30.07 "HgN/A
3:00 PM72 °FPassing clouds.10 mph57%30.07 "HgN/A
2:00 PM73 °FPassing clouds.6 mph47%30.09 "HgN/A
1:00 PM72 °FPassing clouds.8 mph53%30.12 "HgN/A
12:00 PM68 °FSunny.8 mph60%30.12 "Hg10 mi
11:00 AM66 °FSunny.10 mph73%30.12 "Hg10 mi
10:00 AM64 °FFog.6 mph78%30.09 "Hg2 mi
9:00 AM63 °FPassing clouds.1 mph77%30.09 "HgN/A
Weather by CustomWeather, © 2016

See weather overviewHow to use our weather pages